| time (UTC) | temp C | wind direction | speed KPH | gust KPH | rain 1hr cm | rain 24hr cm | rain mn cm | humidity % | barometer mb |
| 20260506160003 | 13 | 319 | 1.6 | 8.0 | 0.00 | 0.00 | 0.00 | 47 | |
| 20260506155403 | 12 | 320 | 1.6 | 4.8 | 0.00 | 0.00 | 0.00 | 48 | |
| 20260506154503 | 12 | 319 | 1.6 | 4.8 | 0.00 | 0.00 | 0.00 | 49 | |
| 20260506153603 | 11 | 319 | 3.2 | 6.4 | 0.00 | 0.00 | 0.00 | 48 | |
| 20260506152703 | 11 | 345 | 3.2 | 8.0 | 0.00 | 0.00 | 0.00 | 48 | |
| 20260506151803 | 11 | 356 | 3.2 | 6.4 | 0.00 | 0.00 | 0.00 | 49 | |
| 20260506150903 | 11 | 355 | 3.2 | 8.0 | 0.00 | 0.00 | 0.00 | 51 | |
| 20260506150003 | 11 | 315 | 4.8 | 8.0 | 0.00 | 0.00 | 0.00 | 52 | |
| 20260506145403 | 11 | 312 | 4.8 | 8.0 | 0.00 | 0.00 | 0.00 | 51 | |
| 20260506144503 | 10 | 312 | 3.2 | 6.4 | 0.00 | 0.00 | 0.00 | 58 | |
| 20260506143813 | 9 | 311 | 3.2 | 6.4 | 0.00 | 0.00 | 0.00 | 58 | |
| 20260506142703 | 8 | 311 | 3.2 | 6.4 | 0.00 | 0.00 | 0.00 | 57 | |
| 20260506141803 | 9 | 311 | 4.8 | 6.4 | 0.00 | 0.00 | 0.00 | 57 | |
| 20260506140903 | 9 | 274 | 3.2 | 9.7 | 0.00 | 0.00 | 0.00 | 58 | |
| 20260506140213 | 8 | 242 | 0.0 | 3.2 | 0.00 | 0.00 | 0.00 | 58 | |
| 20260506135403 | 7 | 0 | 0.0 | 0.0 | 0.00 | 0.00 | 0.00 | 58 | |
| 20260506134503 | 7 | 241 | 0.0 | 1.6 | 0.00 | 0.00 | 0.00 | 57 | |
| 20260506133603 | 7 | 0 | 0.0 | 0.0 | 0.00 | 0.00 | 0.00 | 57 | |
| 20260506132703 | 7 | 239 | 1.6 | 6.4 | 0.00 | 0.00 | 0.00 | 57 | |
| 20260506132014 | 7 | 178 | 0.0 | 1.6 | 0.00 | 0.00 | 0.00 | 54 | |
| 20260506130903 | 7 | 178 | 0.0 | 1.6 | 0.00 | 0.00 | 0.00 | 54 | |
| 20260506130214 | 7 | 0 | 0.0 | 0.0 | 0.00 | 0.00 | 0.00 | 53 | |
| 20260506125403 | 7 | 178 | 0.0 | 1.6 | 0.00 | 0.00 | 0.00 | 52 | |
| 20260506124503 | 7 | 178 | 0.0 | 3.2 | 0.00 | 0.00 | 0.00 | 51 | |
| 20260506123603 | 7 | 178 | 0.0 | 3.2 | 0.00 | 0.00 | 0.00 | 51 | |
| 20260506122703 | 8 | 178 | 3.2 | 4.8 | 0.00 | 0.00 | 0.00 | 50 | |
| 20260506122013 | 8 | 184 | 3.2 | 6.4 | 0.00 | 0.00 | 0.00 | 50 | |
| 20260506120903 | 8 | 235 | 3.2 | 6.4 | 0.00 | 0.00 | 0.00 | 50 | |
| 20260506120003 | 8 | 298 | 0.0 | 4.8 | 0.00 | 0.00 | 0.00 | 51 | |
| 20260506115614 | 8 | 299 | 0.0 | 1.6 | 0.00 | 0.00 | 0.00 | 52 | |
| 20260506114503 | 8 | 0 | 0.0 | 0.0 | 0.00 | 0.00 | 0.00 | 51 | |
| 20260506113603 | 8 | 299 | 1.6 | 6.4 | 0.00 | 0.00 | 0.00 | 52 | |
| 20260506112703 | 9 | 246 | 1.6 | 8.0 | 0.00 | 0.00 | 0.00 | 52 | |
| 20260506112013 | 8 | 169 | 1.6 | 4.8 | 0.00 | 0.00 | 0.00 | 47 | |
| 20260506110903 | 8 | 169 | 0.0 | 4.8 | 0.00 | 0.00 | 0.00 | 49 | |
| 20260506110003 | 8 | 169 | 1.6 | 3.2 | 0.00 | 0.00 | 0.00 | 49 | |
| 20260506105403 | 8 | 169 | 1.6 | 3.2 | 0.00 | 0.00 | 0.00 | 49 | |
| 20260506104503 | 8 | 169 | 1.6 | 4.8 | 0.00 | 0.00 | 0.00 | 48 | |
| 20260506103603 | 8 | 141 | 3.2 | 9.7 | 0.00 | 0.00 | 0.00 | 48 | |
| 20260506102703 | 8 | 137 | 3.2 | 9.7 | 0.00 | 0.00 | 0.00 | 48 | |
| 20260506101803 | 7 | 145 | 3.2 | 6.4 | 0.00 | 0.00 | 0.00 | 49 | |
| 20260506100903 | 7 | 138 | 3.2 | 6.4 | 0.00 | 0.00 | 0.00 | 48 | |
| 20260506100004 | 7 | 167 | 3.2 | 8.0 | 0.00 | 0.00 | 0.00 | 48 | |
| 20260506095403 | 7 | 218 | 1.6 | 6.4 | 0.00 | 0.00 | 0.00 | 49 | |
| 20260506094714 | 7 | 219 | 1.6 | 4.8 | 0.00 | 0.00 | 0.00 | 49 | |
| 20260506093603 | 7 | 219 | 1.6 | 6.4 | 0.00 | 0.00 | 0.00 | 48 | |
| 20260506092703 | 8 | 218 | 0.0 | 3.2 | 0.00 | 0.00 | 0.00 | 46 | |
| 20260506091803 | 8 | 218 | 1.6 | 4.8 | 0.00 | 0.00 | 0.00 | 45 | |
| 20260506090903 | 8 | 208 | 1.6 | 8.0 | 0.00 | 0.00 | 0.00 | 45 | |
| 20260506090003 | 9 | 156 | 3.2 | 9.7 | 0.00 | 0.00 | 0.00 | 44 | |
| 20260506085612 | 8 | 207 | 1.6 | 6.4 | 0.00 | 0.00 | 0.00 | 45 | |
| 20260506084714 | 9 | 209 | 0.0 | 1.6 | 0.00 | 0.00 | 0.00 | 44 | |
| 20260506083603 | 10 | 0 | 0.0 | 0.0 | 0.00 | 0.00 | 0.00 | 43 | |
| 20260506082912 | 10 | 209 | 0.0 | 3.2 | 0.00 | 0.00 | 0.00 | 44 | |
| 20260506081803 | 10 | 209 | 1.6 | 6.4 | 0.00 | 0.00 | 0.00 | 41 | |
| 20260506081113 | 11 | 210 | 1.6 | 6.4 | 0.00 | 0.00 | 0.00 | 41 | |
| 20260506080213 | 11 | 207 | 3.2 | 6.4 | 0.00 | 0.00 | 0.00 | 41 | |
| 20260506072703 | 11 | 205 | 6.4 | 19.3 | 0.00 | 0.00 | 0.00 | 39 | |
| 20260506071803 | 11 | 188 | 4.8 | 11.3 | 0.00 | 0.00 | 0.00 | 40 | |
| 20260506070904 | 11 | 191 | 4.8 | 8.0 | 0.00 | 0.00 | 0.00 | 40 | |
| 20260506061803 | 12 | 205 | 3.2 | 8.0 | 0.00 | 0.00 | 0.00 | 41 | |
| 20260506060903 | 12 | 208 | 0.0 | 4.8 | 0.00 | 0.00 | 0.00 | 42 | |
| 20260506050903 | 12 | 208 | 1.6 | 4.8 | 0.00 | 0.00 | 0.00 | 41 | |
| 20260506044503 | 12 | 234 | 1.6 | 4.8 | 0.00 | 0.00 | 0.00 | 43 | |
| 20260506043603 | 12 | 252 | 1.6 | 4.8 | 0.00 | 0.00 | 0.00 | 43 | |
| 20260506042703 | 12 | 252 | 0.0 | 3.2 | 0.00 | 0.00 | 0.00 | 42 | |
| 20260506041803 | 12 | 246 | 4.8 | 9.7 | 0.00 | 0.00 | 0.00 | 42 | |
| 20260506040903 | 12 | 251 | 8.0 | 14.5 | 0.00 | 0.00 | 0.00 | 42 | |
| 20260506040004 | 12 | 249 | 6.4 | 14.5 | 0.00 | 0.00 | 0.00 | 41 | |
| 20260506035403 | 12 | 251 | 8.0 | 14.5 | 0.00 | 0.00 | 0.00 | 41 | |
| 20260506034503 | 12 | 259 | 9.7 | 17.7 | 0.00 | 0.00 | 0.00 | 40 | |
| 20260506033813 | 12 | 255 | 4.8 | 14.5 | 0.00 | 0.00 | 0.00 | 41 | |
| 20260506032703 | 12 | 245 | 4.8 | 11.3 | 0.00 | 0.00 | 0.00 | 40 | |
| 20260506032014 | 12 | 244 | 4.8 | 11.3 | 0.00 | 0.00 | 0.00 | 40 | |
| 20260506030903 | 13 | 263 | 6.4 | 11.3 | 0.00 | 0.00 | 0.00 | 39 | |
| 20260506030003 | 13 | 268 | 9.7 | 17.7 | 0.00 | 0.00 | 0.00 | 39 | |
| 20260506025614 | 13 | 274 | 11.3 | 17.7 | 0.00 | 0.00 | 0.00 | 39 | |
| 20260506024503 | 13 | 278 | 14.5 | 25.7 | 0.00 | 0.00 | 0.00 | 38 | |
| 20260506023813 | 13 | 276 | 12.9 | 19.3 | 0.00 | 0.00 | 0.00 | 38 | |
| 20260506022703 | 13 | 279 | 16.1 | 22.5 | 0.00 | 0.00 | 0.00 | 37 | |
| 20260506022014 | 13 | 285 | 16.1 | 22.5 | 0.00 | 0.00 | 0.00 | 38 | |
| 20260506020903 | 14 | 284 | 20.9 | 30.6 | 0.00 | 0.00 | 0.00 | 37 | |
| 20260506020004 | 15 | 276 | 14.5 | 25.7 | 0.00 | 0.00 | 0.00 | 35 | |
| 20260506015614 | 15 | 267 | 14.5 | 22.5 | 0.00 | 0.00 | 0.00 | 35 | |
| 20260506014713 | 15 | 270 | 16.1 | 25.7 | 0.00 | 0.00 | 0.00 | 35 | |
| 20260506013603 | 16 | 255 | 8.0 | 20.9 | 0.00 | 0.00 | 0.00 | 34 | |
| 20260506012914 | 16 | 264 | 11.3 | 20.9 | 0.00 | 0.00 | 0.00 | 34 | |
| 20260506011803 | 16 | 220 | 8.0 | 16.1 | 0.00 | 0.00 | 0.00 | 33 | |
| 20260506010903 | 16 | 201 | 9.7 | 20.9 | 0.00 | 0.00 | 0.00 | 32 | |
| 20260506010003 | 16 | 203 | 11.3 | 22.5 | 0.00 | 0.00 | 0.00 | 33 | |
| 20260506005403 | 16 | 196 | 11.3 | 22.5 | 0.00 | 0.00 | 0.00 | 32 | |
| 20260506004503 | 16 | 198 | 9.7 | 17.7 | 0.00 | 0.00 | 0.00 | 33 | |
| 20260506003814 | 15 | 194 | 9.7 | 17.7 | 0.00 | 0.00 | 0.00 | 33 | |
| 20260506002703 | 15 | 202 | 9.7 | 19.3 | 0.00 | 0.00 | 0.00 | 33 | |
| 20260506001803 | 16 | 203 | 9.7 | 19.3 | 0.00 | 0.00 | 0.00 | 32 | |
| 20260506000903 | 16 | 217 | 6.4 | 11.3 | 0.00 | 0.00 | 0.00 | 31 | |
| 20260506000214 | 17 | 208 | 8.0 | 16.1 | 0.00 | 0.00 | 0.00 | 28 | |
| 20260505235403 | 16 | 203 | 9.7 | 19.3 | 0.00 | 0.00 | 0.00 | 31 | |
| 20260505234503 | 16 | 195 | 9.7 | 17.7 | 0.00 | 0.00 | 0.00 | 31 | |
| 20260505233603 | 17 | 201 | 9.7 | 20.9 | 0.00 | 0.00 | 0.00 | 30 | |
| 20260505232703 | 17 | 209 | 9.7 | 20.9 | 0.00 | 0.00 | 0.00 | 30 | |
| 20260505232012 | 17 | 206 | 9.7 | 20.9 | 0.00 | 0.00 | 0.00 | 29 | |
| 20260505231114 | 17 | 199 | 12.9 | 24.1 | 0.00 | 0.00 | 0.00 | 30 | |
| 20260505230004 | 17 | 225 | 9.7 | 19.3 | 0.00 | 0.00 | 0.00 | 30 | |
| 20260505225403 | 17 | 246 | 6.4 | 19.3 | 0.00 | 0.00 | 0.00 | 31 | |
| 20260505224503 | 17 | 253 | 3.2 | 8.0 | 0.00 | 0.00 | 0.00 | 29 | |
| 20260505223603 | 17 | 299 | 6.4 | 14.5 | 0.00 | 0.00 | 0.00 | 29 | |
| 20260505222703 | 18 | 284 | 8.0 | 17.7 | 0.00 | 0.00 | 0.00 | 29 | |
| 20260505221803 | 18 | 231 | 9.7 | 24.1 | 0.00 | 0.00 | 0.00 | 28 | |
| 20260505221113 | 18 | 234 | 9.7 | 32.2 | 0.00 | 0.00 | 0.00 | 27 | |
| 20260505220213 | 17 | 247 | 9.7 | 19.3 | 0.00 | 0.00 | 0.00 | 30 | |
| 20260505215403 | 18 | 257 | 6.4 | 20.9 | 0.00 | 0.00 | 0.00 | 29 | |
| 20260505214503 | 18 | 259 | 9.7 | 20.9 | 0.00 | 0.00 | 0.00 | 28 | |
| 20260505213603 | 18 | 268 | 9.7 | 19.3 | 0.00 | 0.00 | 0.00 | 29 | |
| 20260505212703 | 18 | 280 | 8.0 | 20.9 | 0.00 | 0.00 | 0.00 | 30 | |
| 20260505211803 | 18 | 284 | 8.0 | 17.7 | 0.00 | 0.00 | 0.00 | 30 | |
| 20260505210903 | 18 | 285 | 11.3 | 24.1 | 0.00 | 0.00 | 0.00 | 30 | |
| 20260505210004 | 17 | 230 | 8.0 | 17.7 | 0.00 | 0.00 | 0.00 | 30 | |
| 20260505205403 | 18 | 272 | 9.7 | 20.9 | 0.00 | 0.00 | 0.00 | 30 | |
| 20260505204503 | 18 | 247 | 6.4 | 20.9 | 0.00 | 0.00 | 0.00 | 28 | |
| 20260505203813 | 17 | 237 | 3.2 | 9.7 | 0.00 | 0.00 | 0.00 | 30 | |
| 20260505202703 | 17 | 265 | 8.0 | 17.7 | 0.00 | 0.00 | 0.00 | 31 | |
| 20260505201803 | 17 | 277 | 6.4 | 16.1 | 0.00 | 0.00 | 0.00 | 32 | |
| 20260505200904 | 17 | 231 | 8.0 | 19.3 | 0.00 | 0.00 | 0.00 | 29 | |
| 20260505200003 | 17 | 256 | 6.4 | 27.4 | 0.00 | 0.00 | 0.00 | 32 | |
| 20260505195403 | 17 | 256 | 8.0 | 17.7 | 0.00 | 0.00 | 0.00 | 29 | |
| 20260505194503 | 16 | 268 | 9.7 | 17.7 | 0.00 | 0.00 | 0.00 | 30 | |
| 20260505193603 | 16 | 277 | 8.0 | 17.7 | 0.00 | 0.00 | 0.00 | 30 | |
| 20260505192703 | 16 | 319 | 8.0 | 16.1 | 0.00 | 0.00 | 0.00 | 33 | |
| 20260505191803 | 16 | 302 | 6.4 | 14.5 | 0.00 | 0.00 | 0.00 | 33 | |
| 20260505190903 | 16 | 305 | 4.8 | 14.5 | 0.00 | 0.00 | 0.00 | 32 | |
| 20260505190004 | 16 | 325 | 3.2 | 6.4 | 0.00 | 0.00 | 0.00 | 32 | |
| 20260505185403 | 15 | 277 | 4.8 | 14.5 | 0.00 | 0.00 | 0.00 | 34 | |
| 20260505184503 | 15 | 300 | 8.0 | 17.7 | 0.00 | 0.00 | 0.00 | 32 | |
| 20260505183814 | 15 | 303 | 6.4 | 17.7 | 0.00 | 0.00 | 0.00 | 31 | |
| 20260505182913 | 15 | 218 | 8.0 | 19.3 | 0.00 | 0.00 | 0.00 | 31 | |
| 20260505181803 | 15 | 298 | 8.0 | 14.5 | 0.00 | 0.00 | 0.00 | 33 | |
| 20260505180903 | 15 | 278 | 9.7 | 19.3 | 0.00 | 0.00 | 0.00 | 33 | |
| 20260505180003 | 15 | 267 | 8.0 | 19.3 | 0.00 | 0.00 | 0.00 | 33 | |
| 20260505175403 | 15 | 271 | 8.0 | 19.3 | 0.00 | 0.00 | 0.00 | 35 | |
| 20260505174503 | 15 | 272 | 8.0 | 16.1 | 0.00 | 0.00 | 0.00 | 35 | |
| 20260505173814 | 15 | 264 | 8.0 | 22.5 | 0.00 | 0.00 | 0.00 | 36 | |
| 20260505172703 | 14 | 277 | 11.3 | 20.9 | 0.00 | 0.00 | 0.00 | 35 | |
| 20260505171803 | 14 | 269 | 12.9 | 20.9 | 0.00 | 0.00 | 0.00 | 35 | |
| 20260505170903 | 13 | 264 | 9.7 | 22.5 | 0.00 | 0.00 | 0.00 | 38 | |
| 20260505170003 | 13 | 228 | 11.3 | 20.9 | 0.00 | 0.00 | 0.00 | 35 | |
| 20260505165403 | 13 | 229 | 9.7 | 17.7 | 0.00 | 0.00 | 0.00 | 37 | |
| 20260505164503 | 12 | 222 | 11.3 | 24.1 | 0.00 | 0.00 | 0.00 | 39 | |
| 20260505163813 | 12 | 220 | 9.7 | 22.5 | 0.00 | 0.00 | 0.00 | 39 | |
| 20260505162703 | 12 | 214 | 9.7 | 17.7 | 0.00 | 0.00 | 0.00 | 39 | |
| 20260505161803 | 12 | 215 | 9.7 | 25.7 | 0.00 | 0.00 | 0.00 | 40 | |
| 20260505160903 | 12 | 226 | 11.3 | 24.1 | 0.00 | 0.00 | 0.00 | 41 |